TimeCST,TemperatureF,Dew PointF,Humidity,Sea Level PressureIn,VisibilityMPH,Wind Direction,Wind SpeedMPH,Gust SpeedMPH,PrecipitationIn,Events,Conditions,WindDirDegrees,DateUTC
12:55 AM,67.8,64.6,89,30.14,10.0,SSE,6.9,-,N/A,,Scattered Clouds,150,2012-12-05 06:55:00
1:55 AM,67.8,64.6,89,30.16,10.0,SSE,4.6,-,N/A,,Overcast,150,2012-12-05 07:55:00
2:55 AM,66.4,64.4,93,30.15,10.0,Calm,Calm,-,N/A,,Overcast,0,2012-12-05 08:55:00
3:55 AM,65.8,64.2,94,30.13,10.0,Calm,Calm,-,N/A,,Scattered Clouds,0,2012-12-05 09:55:00
4:24 AM,66.2,64.4,94,30.14,10.0,Calm,Calm,-,N/A,Rain,Light Rain,0,2012-12-05 10:24:00
4:34 AM,66.2,64.4,94,30.13,7.0,SSE,4.6,-,N/A,Rain,Light Rain,150,2012-12-05 10:34:00
4:41 AM,66.2,64.4,94,30.13,3.0,South,10.4,-,N/A,Rain,Heavy Rain,190,2012-12-05 10:41:00
4:42 AM,66.2,64.4,94,30.13,3.0,South,12.7,-,N/A,Rain,Rain,190,2012-12-05 10:42:00
4:44 AM,66.2,64.4,94,30.13,3.0,South,11.5,-,N/A,Rain,Rain,190,2012-12-05 10:44:00
4:45 AM,66.2,64.4,94,30.13,3.0,South,12.7,-,N/A,Rain,Rain,180,2012-12-05 10:45:00
4:48 AM,66.2,64.4,94,30.14,5.0,South,10.4,-,N/A,Rain,Light Rain,170,2012-12-05 10:48:00
4:50 AM,64.4,62.6,94,30.13,5.0,SSE,9.2,-,N/A,Rain,Light Rain,160,2012-12-05 10:50:00
4:53 AM,64.4,62.6,94,30.13,4.0,SSE,6.9,-,N/A,Rain,Light Rain,160,2012-12-05 10:53:00
4:55 AM,64.4,62.8,94,30.13,4.0,SSE,8.1,-,0.20,Rain,Heavy Rain,160,2012-12-05 10:55:00
4:57 AM,64.4,62.6,94,30.13,4.0,SSE,8.1,-,N/A,Rain,Light Rain,160,2012-12-05 10:57:00
5:25 AM,64.4,60.8,88,30.13,10.0,SE,6.9,-,N/A,,Mostly Cloudy,140,2012-12-05 11:25:00
5:55 AM,64.0,59.7,86,30.13,10.0,SE,4.6,-,0.01,,Mostly Cloudy,130,2012-12-05 11:55:00
6:55 AM,64.0,61.7,92,30.14,10.0,East,3.5,-,N/A,,Mostly Cloudy,90,2012-12-05 12:55:00
8:55 AM,66.0,63.7,92,30.17,10.0,ESE,3.5,-,N/A,,Overcast,110,2012-12-05 14:55:00
9:55 AM,66.6,63.3,89,30.16,10.0,East,5.8,-,N/A,,Mostly Cloudy,100,2012-12-05 15:55:00
10:24 AM,66.2,64.4,94,30.15,10.0,ENE,8.1,-,N/A,Rain,Light Rain,60,2012-12-05 16:24:00
10:33 AM,66.2,64.4,94,30.15,10.0,ENE,4.6,-,N/A,,Mostly Cloudy,70,2012-12-05 16:33:00
10:55 AM,68.2,64.4,88,30.14,10.0,East,8.1,-,0.00,,Partly Cloudy,90,2012-12-05 16:55:00
11:55 AM,70.7,63.0,76,30.11,10.0,East,5.8,-,N/A,,Mostly Cloudy,90,2012-12-05 17:55:00
12:55 PM,71.1,62.4,74,30.08,10.0,East,8.1,-,N/A,,Mostly Cloudy,90,2012-12-05 18:55:00
1:55 PM,69.3,62.1,78,30.07,10.0,SSE,8.1,-,N/A,,Overcast,150,2012-12-05 19:55:00
2:55 PM,68.9,62.4,80,30.06,10.0,ESE,6.9,-,N/A,,Overcast,110,2012-12-05 20:55:00
3:55 PM,68.9,62.6,80,30.06,10.0,Variable,4.6,-,N/A,,Overcast,0,2012-12-05 21:55:00
4:55 PM,68.4,62.4,81,30.06,10.0,East,6.9,-,N/A,,Overcast,100,2012-12-05 22:55:00
5:55 PM,67.8,63.3,85,30.07,10.0,ENE,3.5,-,N/A,,Overcast,70,2012-12-05 23:55:00
6:55 PM,66.9,63.0,87,30.07,10.0,East,5.8,-,N/A,,Overcast,80,2012-12-06 00:55:00
7:55 PM,64.6,62.4,93,30.07,10.0,NNE,5.8,-,N/A,,Mostly Cloudy,30,2012-12-06 01:55:00
8:55 PM,64.9,62.6,92,30.07,10.0,NE,5.8,-,N/A,,Overcast,40,2012-12-06 02:55:00
9:55 PM,64.4,61.9,92,30.07,10.0,NE,3.5,-,N/A,,Overcast,50,2012-12-06 03:55:00
10:55 PM,63.3,61.0,92,30.06,10.0,ENE,5.8,-,N/A,,Mostly Cloudy,60,2012-12-06 04:55:00
11:55 PM,63.5,60.6,90,30.04,10.0,ENE,6.9,-,N/A,,Clear,70,2012-12-06 05:55:00